owner,sensor,date,latitude,longitude,vertical_datum,direction_of_sea_water_velocity,sea_water_speed,upward_sea_water_velocity,qcFlag 
TABS,ioos:station:wmo:42048:1,1998-08-01T00:00:00Z,27.9396,-96.8429,2.0,357.4383555,13.42341611,-99999.0,'11111222,11111222,99999999' 
TABS,ioos:station:wmo:42048:1,1998-08-01T00:30:00Z,27.9396,-96.8429,2.0,2.189716724,11.77859924,-99999.0,'11111222,11111222,99999999' 
TABS,ioos:station:wmo:42048:1,1998-08-01T01:00:00Z,27.9396,-96.8429,2.0,7.798255786,10.98155271,-99999.0,'11111222,11111222,99999999' 
TABS,ioos:station:wmo:42048:1,1998-08-01T01:30:00Z,27.9396,-96.8429,2.0,0.000210459,11.47,-99999.0,'11111222,11111222,99999999' 
TABS,ioos:station:wmo:42048:1,1998-08-01T02:00:00Z,27.9396,-96.8429,2.0,6.603293735,10.34864725,-99999.0,'11111222,11111222,99999999' 
TABS,ioos:station:wmo:42048:1,1998-08-01T02:30:00Z,27.9396,-96.8429,2.0,5.694472895,10.48172219,-99999.0,'11111222,11111222,99999999' 
TABS,ioos:station:wmo:42048:1,1998-08-01T03:00:00Z,27.9396,-96.8429,2.0,11.33287995,9.872487022,-99999.0,'11133222,11111222,99999999' 
TABS,ioos:station:wmo:42048:1,1998-08-01T03:30:00Z,27.9396,-96.8429,2.0,8.936140564,10.55814851,-99999.0,'11111222,11111222,99999999' 
TABS,ioos:station:wmo:42048:1,1998-08-01T04:00:00Z,27.9396,-96.8429,2.0,9.602962277,10.73035414,-99999.0,'11111222,11111222,99999999' 
TABS,ioos:station:wmo:42048:1,1998-08-01T04:30:00Z,27.9396,-96.8429,2.0,10.68712877,10.46145305,-99999.0,'11111222,11111222,99999999' 
TABS,ioos:station:wmo:42048:1,1998-08-01T05:00:00Z,27.9396,-96.8429,2.0,9.332124055,10.11385189,-99999.0,'11111222,11111222,99999999' 
TABS,ioos:station:wmo:42048:1,1998-08-01T05:30:00Z,27.9396,-96.8429,2.0,16.29673657,10.08520203,-99999.0,'11111222,11111222,99999999' 
TABS,ioos:station:wmo:42048:1,1998-08-01T06:00:00Z,27.9396,-96.8429,2.0,14.22538132,10.29569327,-99999.0,'11111222,11111222,99999999' 
TABS,ioos:station:wmo:42048:1,1998-08-01T06:30:00Z,27.9396,-96.8429,2.0,17.91863227,10.17346057,-99999.0,'11111222,11111222,99999999' 
TABS,ioos:station:wmo:42048:1,1998-08-01T07:00:00Z,27.9396,-96.8429,2.0,17.2245945,11.07676848,-99999.0,'11111222,11111222,99999999' 
TABS,ioos:station:wmo:42048:1,1998-08-01T07:30:00Z,27.9396,-96.8429,2.0,14.61197444,10.62359638,-99999.0,'11111222,11111222,99999999' 
TABS,ioos:station:wmo:42048:1,1998-08-01T08:00:00Z,27.9396,-96.8429,2.0,17.2245945,11.07676848,-99999.0,'11111222,11111222,99999999' 
TABS,ioos:station:wmo:42048:1,1998-08-01T08:30:00Z,27.9396,-96.8429,2.0,18.71875567,10.22060664,-99999.0,'11111222,11111222,99999999' 
TABS,ioos:station:wmo:42048:1,1998-08-01T09:00:00Z,27.9396,-96.8429,2.0,18.42032256,12.24750179,-99999.0,'11111222,11111222,99999999' 
TABS,ioos:station:wmo:42048:1,1998-08-01T09:30:00Z,27.9396,-96.8429,2.0,23.12441728,12.14585526,-99999.0,'11111222,11111222,99999999' 
TABS,ioos:station:wmo:42048:1,1998-08-01T10:00:00Z,27.9396,-96.8429,2.0,22.06082351,11.90133606,-99999.0,'11111222,11111222,99999999' 
TABS,ioos:station:wmo:42048:1,1998-08-01T10:30:00Z,27.9396,-96.8429,2.0,19.12116324,11.35655317,-99999.0,'11111222,11111222,99999999' 
TABS,ioos:station:wmo:42048:1,1998-08-01T11:00:00Z,27.9396,-96.8429,2.0,20.09236885,13.01189072,-99999.0,'11111222,11111222,99999999' 
TABS,ioos:station:wmo:42048:1,1998-08-01T11:30:00Z,27.9396,-96.8429,2.0,22.59402188,13.56077063,-99999.0,'11111222,11111222,99999999' 
TABS,ioos:station:wmo:42048:1,1998-08-01T12:00:00Z,27.9396,-96.8429,2.0,22.13239821,13.82896236,-99999.0,'11111222,11111222,99999999' 
TABS,ioos:station:wmo:42048:1,1998-08-01T12:30:00Z,27.9396,-96.8429,2.0,26.84930783,13.52837758,-99999.0,'11111222,11111222,99999999' 
TABS,ioos:station:wmo:42048:1,1998-08-01T13:00:00Z,27.9396,-96.8429,2.0,22.53340785,13.23001512,-99999.0,'11111222,11111222,99999999' 
TABS,ioos:station:wmo:42048:1,1998-08-01T13:30:00Z,27.9396,-96.8429,2.0,21.14302733,14.05620859,-99999.0,'11111222,11111222,99999999' 
TABS,ioos:station:wmo:42048:1,1998-08-01T14:00:00Z,27.9396,-96.8429,2.0,23.11525586,14.41746164,-99999.0,'11111222,11111222,99999999' 
TABS,ioos:station:wmo:42048:1,1998-08-01T14:30:00Z,27.9396,-96.8429,2.0,31.07302902,15.30627649,-99999.0,'11111222,11111222,99999999' 
TABS,ioos:station:wmo:42048:1,1998-08-01T15:00:00Z,27.9396,-96.8429,2.0,29.07123457,16.87609256,-99999.0,'11111222,11111222,99999999' 
TABS,ioos:station:wmo:42048:1,1998-08-01T15:30:00Z,27.9396,-96.8429,2.0,33.6901992,16.1168142,-99999.0,'11111222,11111222,99999999' 
TABS,ioos:station:wmo:42048:1,1998-08-01T16:00:00Z,27.9396,-96.8429,2.0,35.39735341,15.17501236,-99999.0,'11111222,11111222,99999999' 
TABS,ioos:station:wmo:42048:1,1998-08-01T16:30:00Z,27.9396,-96.8429,2.0,38.27227054,17.0811153,-99999.0,'11111222,11111222,99999999' 
TABS,ioos:station:wmo:42048:1,1998-08-01T17:00:00Z,27.9396,-96.8429,2.0,35.22838073,15.4983612,-99999.0,'11111222,11111222,99999999' 
TABS,ioos:station:wmo:42048:1,1998-08-01T17:30:00Z,27.9396,-96.8429,2.0,35.56142443,14.0996773,-99999.0,'11111222,11111222,99999999' 
TABS,ioos:station:wmo:42048:1,1998-08-01T18:00:00Z,27.9396,-96.8429,2.0,37.47187989,13.70875633,-99999.0,'11111222,11111222,99999999' 
TABS,ioos:station:wmo:42048:1,1998-08-01T18:30:00Z,27.9396,-96.8429,2.0,36.61427882,12.99412944,-99999.0,'11111222,11111222,99999999' 
TABS,ioos:station:wmo:42048:1,1998-08-01T19:00:00Z,27.9396,-96.8429,2.0,32.40415728,11.12176695,-99999.0,'11111222,11111222,99999999' 
TABS,ioos:station:wmo:42048:1,1998-08-01T19:30:00Z,27.9396,-96.8429,2.0,25.73488597,9.258293579,-99999.0,'11133222,11111222,99999999' 
TABS,ioos:station:wmo:42048:1,1998-08-01T20:00:00Z,27.9396,-96.8429,2.0,14.97006912,8.632989054,-99999.0,'11133222,11111222,99999999' 
TABS,ioos:station:wmo:42048:1,1998-08-01T20:30:00Z,27.9396,-96.8429,2.0,5.173605153,9.870207698,-99999.0,'11133222,11111222,99999999' 
TABS,ioos:station:wmo:42048:1,1998-08-01T21:00:00Z,27.9396,-96.8429,2.0,1.498447225,11.47392261,-99999.0,'11111222,11111222,99999999' 
TABS,ioos:station:wmo:42048:1,1998-08-01T21:30:00Z,27.9396,-96.8429,2.0,3.790444328,11.19448525,-99999.0,'11111222,11111222,99999999' 
TABS,ioos:station:wmo:42048:1,1998-08-01T22:00:00Z,27.9396,-96.8429,2.0,358.48213,11.32397457,-99999.0,'11111222,11111222,99999999' 
TABS,ioos:station:wmo:42048:1,1998-08-01T22:30:00Z,27.9396,-96.8429,2.0,357.7534952,11.47882398,-99999.0,'11111222,11111222,99999999' 
TABS,ioos:station:wmo:42048:1,1998-08-01T23:00:00Z,27.9396,-96.8429,2.0,355.8829175,10.30659983,-99999.0,'11111222,11111222,99999999' 
TABS,ioos:station:wmo:42048:1,1998-08-01T23:30:00Z,27.9396,-96.8429,2.0,350.124989,13.00265358,-99999.0,'11111222,11111222,99999999' 
TABS,ioos:station:wmo:42048:1,1998-08-02T00:00:00Z,27.9396,-96.8429,2.0,354.8136748,13.1638976,-99999.0,'11111222,11111222,99999999' 
TABS,ioos:station:wmo:42048:1,1998-08-02T00:30:00Z,27.9396,-96.8429,2.0,353.5861854,11.99508233,-99999.0,'11111222,11111222,99999999' 
TABS,ioos:station:wmo:42048:1,1998-08-02T01:00:00Z,27.9396,-96.8429,2.0,351.2880801,12.80777889,-99999.0,'11111222,11111222,99999999' 
TABS,ioos:station:wmo:42048:1,1998-08-02T01:30:00Z,27.9396,-96.8429,2.0,359.241037,11.32099377,-99999.0,'11111222,11144222,99999999' 
TABS,ioos:station:wmo:42048:1,1998-08-02T02:00:00Z,27.9396,-96.8429,2.0,2.470686029,10.43970306,-99999.0,'11111222,11111222,99999999' 
TABS,ioos:station:wmo:42048:1,1998-08-02T02:30:00Z,27.9396,-96.8429,2.0,6.328665684,10.79578622,-99999.0,'11111222,11111222,99999999' 
TABS,ioos:station:wmo:42048:1,1998-08-02T03:00:00Z,27.9396,-96.8429,2.0,6.15788146,11.09400739,-99999.0,'11111222,11111222,99999999' 
TABS,ioos:station:wmo:42048:1,1998-08-02T03:30:00Z,27.9396,-96.8429,2.0,8.016536878,10.68440452,-99999.0,'11111222,11111222,99999999' 
TABS,ioos:station:wmo:42048:1,1998-08-02T04:00:00Z,27.9396,-96.8429,2.0,13.22178267,10.4058301,-99999.0,'11111222,11111222,99999999' 
TABS,ioos:station:wmo:42048:1,1998-08-02T04:30:00Z,27.9396,-96.8429,2.0,11.67340984,9.588310592,-99999.0,'11133222,11111222,99999999' 
TABS,ioos:station:wmo:42048:1,1998-08-02T05:00:00Z,27.9396,-96.8429,2.0,20.78840754,9.241644875,-99999.0,'11133222,11111222,99999999' 
TABS,ioos:station:wmo:42048:1,1998-08-02T05:30:00Z,27.9396,-96.8429,2.0,21.65277917,9.295939974,-99999.0,'11133222,11111222,99999999' 
TABS,ioos:station:wmo:42048:1,1998-08-02T06:00:00Z,27.9396,-96.8429,2.0,20.29630626,10.32079454,-99999.0,'11111222,11111222,99999999' 
TABS,ioos:station:wmo:42048:1,1998-08-02T06:30:00Z,27.9396,-96.8429,2.0,27.78171957,9.268354762,-99999.0,'11133222,11111222,99999999' 
TABS,ioos:station:wmo:42048:1,1998-08-02T07:00:00Z,27.9396,-96.8429,2.0,28.59591454,9.339213029,-99999.0,'11133222,11111222,99999999' 
TABS,ioos:station:wmo:42048:1,1998-08-02T07:30:00Z,27.9396,-96.8429,2.0,20.44287571,10.65076523,-99999.0,'11111222,11111222,99999999' 
TABS,ioos:station:wmo:42048:1,1998-08-02T08:00:00Z,27.9396,-96.8429,2.0,20.56936994,10.18960254,-99999.0,'11111222,11111222,99999999' 
TABS,ioos:station:wmo:42048:1,1998-08-02T08:30:00Z,27.9396,-96.8429,2.0,17.3322967,12.48698522,-99999.0,'11111222,11111222,99999999' 
TABS,ioos:station:wmo:42048:1,1998-08-02T09:00:00Z,27.9396,-96.8429,2.0,29.12000359,11.93905356,-99999.0,'11111222,11111222,99999999' 
TABS,ioos:station:wmo:42048:1,1998-08-02T09:30:00Z,27.9396,-96.8429,2.0,20.80505993,11.31798569,-99999.0,'11111222,11111222,99999999' 
TABS,ioos:station:wmo:42048:1,1998-08-02T10:00:00Z,27.9396,-96.8429,2.0,29.32937303,10.94263222,-99999.0,'11111222,11111222,99999999' 
TABS,ioos:station:wmo:42048:1,1998-08-02T10:30:00Z,27.9396,-96.8429,2.0,24.14696533,14.20273565,-99999.0,'11111222,11111222,99999999' 
TABS,ioos:station:wmo:42048:1,1998-08-02T11:00:00Z,27.9396,-96.8429,2.0,31.17926281,13.23120932,-99999.0,'11111222,11111222,99999999' 
TABS,ioos:station:wmo:42048:1,1998-08-02T11:30:00Z,27.9396,-96.8429,2.0,28.26936063,13.53419743,-99999.0,'11111222,11111222,99999999' 
TABS,ioos:station:wmo:42048:1,1998-08-02T12:00:00Z,27.9396,-96.8429,2.0,23.38655957,12.0172293,-99999.0,'11111222,11111222,99999999' 
TABS,ioos:station:wmo:42048:1,1998-08-02T12:30:00Z,27.9396,-96.8429,2.0,21.54805006,12.1705916,-99999.0,'11111222,11111222,99999999' 
TABS,ioos:station:wmo:42048:1,1998-08-02T13:00:00Z,27.9396,-96.8429,2.0,27.1538327,13.05932617,-99999.0,'11111222,11111222,99999999' 
TABS,ioos:station:wmo:42048:1,1998-08-02T13:30:00Z,27.9396,-96.8429,2.0,25.51140889,17.99444637,-99999.0,'11111222,11111222,99999999' 
TABS,ioos:station:wmo:42048:1,1998-08-02T14:00:00Z,27.9396,-96.8429,2.0,24.41721573,15.86934466,-99999.0,'11111222,11111222,99999999' 
TABS,ioos:station:wmo:42048:1,1998-08-02T14:30:00Z,27.9396,-96.8429,2.0,21.36578183,13.91641118,-99999.0,'11111222,11111222,99999999' 
TABS,ioos:station:wmo:42048:1,1998-08-02T15:00:00Z,27.9396,-96.8429,2.0,29.5050209,14.21326493,-99999.0,'11111222,11111222,99999999' 
TABS,ioos:station:wmo:42048:1,1998-08-02T15:30:00Z,27.9396,-96.8429,2.0,26.80132978,15.19197486,-99999.0,'11111222,11111222,99999999' 
TABS,ioos:station:wmo:42048:1,1998-08-02T16:00:00Z,27.9396,-96.8429,2.0,29.32061777,16.74514855,-99999.0,'11111222,11111222,99999999' 
TABS,ioos:station:wmo:42048:1,1998-08-02T16:30:00Z,27.9396,-96.8429,2.0,33.22864384,15.49327919,-99999.0,'11111222,11111222,99999999' 
TABS,ioos:station:wmo:42048:1,1998-08-02T17:00:00Z,27.9396,-96.8429,2.0,31.7317284,13.30948534,-99999.0,'11111222,11111222,99999999' 
TABS,ioos:station:wmo:42048:1,1998-08-02T17:30:00Z,27.9396,-96.8429,2.0,34.86453453,14.34478651,-99999.0,'11111222,11111222,99999999' 
TABS,ioos:station:wmo:42048:1,1998-08-02T18:00:00Z,27.9396,-96.8429,2.0,36.87907047,12.66400016,-99999.0,'11111222,11111222,99999999' 
TABS,ioos:station:wmo:42048:1,1998-08-02T18:30:00Z,27.9396,-96.8429,2.0,34.19115578,14.59194641,-99999.0,'11111222,11111222,99999999' 
TABS,ioos:station:wmo:42048:1,1998-08-02T19:00:00Z,27.9396,-96.8429,2.0,35.56142443,14.0996773,-99999.0,'11111222,11111222,99999999' 
TABS,ioos:station:wmo:42048:1,1998-08-02T19:30:00Z,27.9396,-96.8429,2.0,36.079726,12.90522762,-99999.0,'11111222,11111222,99999999' 
TABS,ioos:station:wmo:42048:1,1998-08-02T20:00:00Z,27.9396,-96.8429,2.0,26.26470063,12.79048474,-99999.0,'11111222,11111222,99999999' 
TABS,ioos:station:wmo:42048:1,1998-08-02T20:30:00Z,27.9396,-96.8429,2.0,28.10268955,12.33411934,-99999.0,'11111222,11111222,99999999' 
TABS,ioos:station:wmo:42048:1,1998-08-02T21:00:00Z,27.9396,-96.8429,2.0,30.32795974,13.28852889,-99999.0,'11111222,11111222,99999999' 
TABS,ioos:station:wmo:42048:1,1998-08-02T21:30:00Z,27.9396,-96.8429,2.0,30.50479222,12.62784621,-99999.0,'11111222,11111222,99999999' 
TABS,ioos:station:wmo:42048:1,1998-08-02T22:00:00Z,27.9396,-96.8429,2.0,25.89925087,11.92799229,-99999.0,'11111222,11111222,99999999' 
TABS,ioos:station:wmo:42048:1,1998-08-02T22:30:00Z,27.9396,-96.8429,2.0,14.39031942,11.38726482,-99999.0,'11111222,11111222,99999999' 
TABS,ioos:station:wmo:42048:1,1998-08-02T23:00:00Z,27.9396,-96.8429,2.0,16.19337075,13.33920912,-99999.0,'11111222,11111222,99999999' 
TABS,ioos:station:wmo:42048:1,1998-08-02T23:30:00Z,27.9396,-96.8429,2.0,9.590151001,12.54531785,-99999.0,'11111222,11111222,99999999' 
TABS,ioos:station:wmo:42048:1,1998-08-03T00:00:00Z,27.9396,-96.8429,2.0,1.71285903,15.05672607,-99999.0,'11111222,11111222,99999999' 
TABS,ioos:station:wmo:42048:1,1998-08-03T00:30:00Z,27.9396,-96.8429,2.0,354.1641723,13.17830414,-99999.0,'11111222,11111222,99999999' 
TABS,ioos:station:wmo:42048:1,1998-08-03T01:00:00Z,27.9396,-96.8429,2.0,351.1366844,14.47283317,-99999.0,'11111222,11111222,99999999' 
TABS,ioos:station:wmo:42048:1,1998-08-03T01:30:00Z,27.9396,-96.8429,2.0,350.7965036,16.75571544,-99999.0,'11111222,11111222,99999999' 
TABS,ioos:station:wmo:42048:1,1998-08-03T02:00:00Z,27.9396,-96.8429,2.0,352.6668797,16.37393355,-99999.0,'11111222,11111222,99999999' 
TABS,ioos:station:wmo:42048:1,1998-08-03T02:30:00Z,27.9396,-96.8429,2.0,349.3126786,16.06874295,-99999.0,'11111222,11111222,99999999' 
TABS,ioos:station:wmo:42048:1,1998-08-03T03:00:00Z,27.9396,-96.8429,2.0,345.6660882,14.46016943,-99999.0,'11111222,11111222,99999999' 
TABS,ioos:station:wmo:42048:1,1998-08-03T03:30:00Z,27.9396,-96.8429,2.0,340.4307767,16.450231,-99999.0,'11111222,11111222,99999999' 
TABS,ioos:station:wmo:42048:1,1998-08-03T04:00:00Z,27.9396,-96.8429,2.0,349.5987216,14.84393479,-99999.0,'11111222,11111222,99999999' 
TABS,ioos:station:wmo:42048:1,1998-08-03T04:30:00Z,27.9396,-96.8429,2.0,354.2352432,17.82012907,-99999.0,'11111222,11111222,99999999' 
TABS,ioos:station:wmo:42048:1,1998-08-03T05:00:00Z,27.9396,-96.8429,2.0,355.3054448,20.03722785,-99999.0,'11111222,11111222,99999999' 
TABS,ioos:station:wmo:42048:1,1998-08-03T05:30:00Z,27.9396,-96.8429,2.0,9.539881688,20.69620738,-99999.0,'11111222,11111222,99999999' 
TABS,ioos:station:wmo:42048:1,1998-08-03T06:00:00Z,27.9396,-96.8429,2.0,7.922813751,18.35519817,-99999.0,'11111222,11111222,99999999' 
TABS,ioos:station:wmo:42048:1,1998-08-03T06:30:00Z,27.9396,-96.8429,2.0,5.901130486,18.8699894,-99999.0,'11111222,11111222,99999999' 
TABS,ioos:station:wmo:42048:1,1998-08-03T07:00:00Z,27.9396,-96.8429,2.0,5.320929503,19.30317331,-99999.0,'11111222,11111222,99999999' 
TABS,ioos:station:wmo:42048:1,1998-08-03T07:30:00Z,27.9396,-96.8429,2.0,5.351737845,20.80066585,-99999.0,'11111222,11111222,99999999' 
TABS,ioos:station:wmo:42048:1,1998-08-03T08:00:00Z,27.9396,-96.8429,2.0,13.58314223,18.39447743,-99999.0,'11111222,11111222,99999999' 
TABS,ioos:station:wmo:42048:1,1998-08-03T08:30:00Z,27.9396,-96.8429,2.0,15.02906811,16.65984694,-99999.0,'11111222,11111222,99999999' 
TABS,ioos:station:wmo:42048:1,1998-08-03T09:00:00Z,27.9396,-96.8429,2.0,17.53155132,14.839252,-99999.0,'11111222,11111222,99999999' 
TABS,ioos:station:wmo:42048:1,1998-08-03T09:30:00Z,27.9396,-96.8429,2.0,23.04556339,15.2250353,-99999.0,'11111222,11111222,99999999' 
TABS,ioos:station:wmo:42048:1,1998-08-03T10:00:00Z,27.9396,-96.8429,2.0,38.93813267,18.01173229,-99999.0,'11111222,11111222,99999999' 
TABS,ioos:station:wmo:42048:1,1998-08-03T10:30:00Z,27.9396,-96.8429,2.0,26.30002052,15.46033958,-99999.0,'11111222,11111222,99999999' 
TABS,ioos:station:wmo:42048:1,1998-08-03T11:00:00Z,27.9396,-96.8429,2.0,49.88921244,18.50159182,-99999.0,'11111222,11111222,99999999' 
TABS,ioos:station:wmo:42048:1,1998-08-03T11:30:00Z,27.9396,-96.8429,2.0,32.44279959,16.9445596,-99999.0,'11111222,11111222,99999999' 
TABS,ioos:station:wmo:42048:1,1998-08-03T12:00:00Z,27.9396,-96.8429,2.0,52.7035805,20.41456588,-99999.0,'11111222,11111222,99999999' 
TABS,ioos:station:wmo:42048:1,1998-08-03T12:30:00Z,27.9396,-96.8429,2.0,45.37231077,16.32744009,-99999.0,'11111222,11111222,99999999' 
TABS,ioos:station:wmo:42048:1,1998-08-03T13:00:00Z,27.9396,-96.8429,2.0,50.48890326,15.45041423,-99999.0,'11111222,11111222,99999999' 
TABS,ioos:station:wmo:42048:1,1998-08-03T13:30:00Z,27.9396,-96.8429,2.0,58.28152996,19.26782292,-99999.0,'11111222,11111222,99999999' 
TABS,ioos:station:wmo:42048:1,1998-08-03T14:00:00Z,27.9396,-96.8429,2.0,56.30179447,19.33962254,-99999.0,'11111222,11111222,99999999' 
TABS,ioos:station:wmo:42048:1,1998-08-03T14:30:00Z,27.9396,-96.8429,2.0,48.65665401,19.84646316,-99999.0,'11111222,11111222,99999999' 
TABS,ioos:station:wmo:42048:1,1998-08-03T15:00:00Z,27.9396,-96.8429,2.0,46.8397155,19.60403275,-99999.0,'11111222,11111222,99999999' 
TABS,ioos:station:wmo:42048:1,1998-08-03T15:30:00Z,27.9396,-96.8429,2.0,42.4093093,18.77165949,-99999.0,'11111222,11111222,99999999' 
TABS,ioos:station:wmo:42048:1,1998-08-03T16:00:00Z,27.9396,-96.8429,2.0,43.99901236,17.80766689,-99999.0,'11111222,11111222,99999999' 
TABS,ioos:station:wmo:42048:1,1998-08-03T16:30:00Z,27.9396,-96.8429,2.0,52.58162337,18.38284254,-99999.0,'11111222,11111222,99999999' 
TABS,ioos:station:wmo:42048:1,1998-08-03T17:00:00Z,27.9396,-96.8429,2.0,58.23196272,16.12588602,-99999.0,'11111222,11111222,99999999' 
TABS,ioos:station:wmo:42048:1,1998-08-03T17:30:00Z,27.9396,-96.8429,2.0,59.35851293,14.02880608,-99999.0,'11111222,11111222,99999999' 
TABS,ioos:station:wmo:42048:1,1998-08-03T18:00:00Z,27.9396,-96.8429,2.0,54.87928045,11.66343431,-99999.0,'11111222,11111222,99999999' 
TABS,ioos:station:wmo:42048:1,1998-08-03T18:30:00Z,27.9396,-96.8429,2.0,58.65804519,11.16994628,-99999.0,'11111222,11111222,99999999' 
TABS,ioos:station:wmo:42048:1,1998-08-03T19:00:00Z,27.9396,-96.8429,2.0,66.92183256,8.750279996,-99999.0,'11133222,11111222,99999999' 
TABS,ioos:station:wmo:42048:1,1998-08-03T19:30:00Z,27.9396,-96.8429,2.0,71.92068721,8.152508816,-99999.0,'11133222,11111222,99999999' 
TABS,ioos:station:wmo:42048:1,1998-08-03T20:00:00Z,27.9396,-96.8429,2.0,79.23675791,6.372103263,-99999.0,'11133222,11111222,99999999' 
TABS,ioos:station:wmo:42048:1,1998-08-03T20:30:00Z,27.9396,-96.8429,2.0,88.77242404,7.001606958,-99999.0,'11133222,11111222,99999999' 
TABS,ioos:station:wmo:42048:1,1998-08-03T21:00:00Z,27.9396,-96.8429,2.0,77.95219638,4.263918386,-99999.0,'11133222,11111222,99999999' 
TABS,ioos:station:wmo:42048:1,1998-08-03T21:30:00Z,27.9396,-96.8429,2.0,60.3438354,2.405036382,-99999.0,'11133222,11111222,99999999' 
TABS,ioos:station:wmo:42048:1,1998-08-03T22:00:00Z,27.9396,-96.8429,2.0,70.33751832,4.428205054,-99999.0,'11133222,11111222,99999999' 
TABS,ioos:station:wmo:42048:1,1998-08-03T22:30:00Z,27.9396,-96.8429,2.0,7.474444249,3.45939301,-99999.0,'11133222,11111222,99999999' 
TABS,ioos:station:wmo:42048:1,1998-08-03T23:00:00Z,27.9396,-96.8429,2.0,347.8131954,5.637038229,-99999.0,'11133222,11111222,99999999' 
TABS,ioos:station:wmo:42048:1,1998-08-03T23:30:00Z,27.9396,-96.8429,2.0,358.9124492,7.901423922,-99999.0,'11133222,11111222,99999999' 
TABS,ioos:station:wmo:42048:1,1998-08-04T00:00:00Z,27.9396,-96.8429,2.0,0.000210459,6.71,-99999.0,'11133222,11111222,99999999' 
TABS,ioos:station:wmo:42048:1,1998-08-04T00:30:00Z,27.9396,-96.8429,2.0,352.8308643,4.807587753,-99999.0,'11133222,11111222,99999999' 
TABS,ioos:station:wmo:42048:1,1998-08-04T01:00:00Z,27.9396,-96.8429,2.0,343.151548,5.140671162,-99999.0,'11133222,11111222,99999999' 
TABS,ioos:station:wmo:42048:1,1998-08-04T01:30:00Z,27.9396,-96.8429,2.0,330.2356892,3.605689948,-99999.0,'11133222,11111222,99999999' 
TABS,ioos:station:wmo:42048:1,1998-08-04T02:00:00Z,27.9396,-96.8429,2.0,346.5452927,3.82498366,-99999.0,'11133222,11111222,99999999' 
TABS,ioos:station:wmo:42048:1,1998-08-04T02:30:00Z,27.9396,-96.8429,2.0,342.407827,3.440930107,-99999.0,'11133222,11111222,99999999' 
TABS,ioos:station:wmo:42048:1,1998-08-04T03:00:00Z,27.9396,-96.8429,2.0,342.407827,3.440930107,-99999.0,'11133222,11111222,99999999' 
TABS,ioos:station:wmo:42048:1,1998-08-04T03:30:00Z,27.9396,-96.8429,2.0,0.000210459,1.64,-99999.0,'11133222,11111222,99999999' 
TABS,ioos:station:wmo:42048:1,1998-08-04T04:00:00Z,27.9396,-96.8429,2.0,16.8051921,1.556470366,-99999.0,'11133222,11111222,99999999' 
TABS,ioos:station:wmo:42048:1,1998-08-04T04:30:00Z,27.9396,-96.8429,2.0,22.06805842,0.798498591,-99999.0,'11133222,11111222,99999999' 
TABS,ioos:station:wmo:42048:1,1998-08-04T05:00:00Z,27.9396,-96.8429,2.0,179.9997895,0.6,-99999.0,'11133222,11111222,99999999' 
TABS,ioos:station:wmo:42048:1,1998-08-04T05:30:00Z,27.9396,-96.8429,2.0,246.6018699,1.133181362,-99999.0,'11133222,11111222,99999999' 
TABS,ioos:station:wmo:42048:1,1998-08-04T06:00:00Z,27.9396,-96.8429,2.0,131.1517243,1.580411339,-99999.0,'11133222,11111222,99999999' 
TABS,ioos:station:wmo:42048:1,1998-08-04T06:30:00Z,27.9396,-96.8429,2.0,195.3435197,1.700617535,-99999.0,'11133222,11111222,99999999' 
TABS,ioos:station:wmo:42048:1,1998-08-04T07:00:00Z,27.9396,-96.8429,2.0,202.460321,1.936930561,-99999.0,'11133222,11111222,99999999' 
TABS,ioos:station:wmo:42048:1,1998-08-04T07:30:00Z,27.9396,-96.8429,2.0,179.9997895,3.28,-99999.0,'11133222,11111222,99999999' 
TABS,ioos:station:wmo:42048:1,1998-08-04T08:00:00Z,27.9396,-96.8429,2.0,179.9997895,5.07,-99999.0,'11133222,11111222,99999999' 
TABS,ioos:station:wmo:42048:1,1998-08-04T08:30:00Z,27.9396,-96.8429,2.0,179.9997895,6.71,-99999.0,'11133222,11111222,99999999' 
TABS,ioos:station:wmo:42048:1,1998-08-04T09:00:00Z,27.9396,-96.8429,2.0,189.0750471,7.544441663,-99999.0,'11133222,11111222,99999999' 
TABS,ioos:station:wmo:42048:1,1998-08-04T09:30:00Z,27.9396,-96.8429,2.0,188.1078953,7.373710057,-99999.0,'11133222,11111222,99999999' 
TABS,ioos:station:wmo:42048:1,1998-08-04T10:00:00Z,27.9396,-96.8429,2.0,193.5493178,8.280464963,-99999.0,'11133222,11111222,99999999' 
TABS,ioos:station:wmo:42048:1,1998-08-04T10:30:00Z,27.9396,-96.8429,2.0,195.6595203,8.817284162,-99999.0,'11133222,11111222,99999999' 
TABS,ioos:station:wmo:42048:1,1998-08-04T11:00:00Z,27.9396,-96.8429,2.0,197.2927406,9.520346632,-99999.0,'11133222,11111222,99999999' 
TABS,ioos:station:wmo:42048:1,1998-08-04T11:30:00Z,27.9396,-96.8429,2.0,202.6989378,8.88847006,-99999.0,'11133222,11111222,99999999' 
TABS,ioos:station:wmo:42048:1,1998-08-04T12:00:00Z,27.9396,-96.8429,2.0,194.4437915,9.541593158,-99999.0,'11133222,11111222,99999999' 
TABS,ioos:station:wmo:42048:1,1998-08-04T12:30:00Z,27.9396,-96.8429,2.0,208.5534118,9.665635002,-99999.0,'11133222,11111222,99999999' 
TABS,ioos:station:wmo:42048:1,1998-08-04T13:00:00Z,27.9396,-96.8429,2.0,210.0063562,12.21754885,-99999.0,'11111222,11111222,99999999' 
TABS,ioos:station:wmo:42048:1,1998-08-04T13:30:00Z,27.9396,-96.8429,2.0,220.9931716,12.04317649,-99999.0,'11111222,11111222,99999999' 
TABS,ioos:station:wmo:42048:1,1998-08-04T14:00:00Z,27.9396,-96.8429,2.0,223.6882545,13.59415315,-99999.0,'11111222,11111222,99999999' 
TABS,ioos:station:wmo:42048:1,1998-08-04T14:30:00Z,27.9396,-96.8429,2.0,230.2794338,13.75501727,-99999.0,'11111222,11111222,99999999' 
TABS,ioos:station:wmo:42048:1,1998-08-04T15:00:00Z,27.9396,-96.8429,2.0,247.31774,17.76385656,-99999.0,'11111222,11111222,99999999' 
TABS,ioos:station:wmo:42048:1,1998-08-04T15:30:00Z,27.9396,-96.8429,2.0,247.6955905,18.83951698,-99999.0,'11111222,11111222,99999999' 
TABS,ioos:station:wmo:42048:1,1998-08-04T16:00:00Z,27.9396,-96.8429,2.0,245.1226061,18.06632503,-99999.0,'11111222,11111222,99999999' 